EXS823K EGGP-GCTS

Flight info

Callsign EXS823K
Flight time N/A
Altitude 34000
Route WAL L10 PENIL M144 BAGSO DCT BUNED DCT WTD DCT TUVEN/M081F340 DCT LASNO T9 BEGAS/N0467F340 DCT RIPEL/N0464F350 DCT OBESA/N0461F370 DCT PECKY DCT RAKUN DCT ORTIS
Aircraft B738/M-SDE2E3FGHIRWXY/LB1

Departure

Time 2026-04-30 07:45
Airport Liverpool John Lennon Airport (EGGP)

Arrival

Time N/A
Airport Tenerife Sur Airport (GCTS)
Time Latitude Longitude Altitude Speed Heading
2026-04-30 07:23 53.33655 -2.85654 85 ft 0 kts 356°
2026-04-30 07:38 53.33649 -2.85653 84 ft 4 kts 356°
2026-04-30 07:38 53.33627 -2.85651 85 ft 4 kts 347°
2026-04-30 07:38 53.33611 -2.85631 89 ft 4 kts 280°
2026-04-30 07:38 53.33610 -2.85589 84 ft 4 kts 265°
2026-04-30 07:39 53.33611 -2.85577 86 ft 0 kts 265°
2026-04-30 07:41 53.33610 -2.85598 84 ft 4 kts 265°
2026-04-30 07:41 53.33606 -2.85686 84 ft 10 kts 265°
2026-04-30 07:41 53.33600 -2.85806 84 ft 10 kts 265°
2026-04-30 07:42 53.33595 -2.85925 85 ft 10 kts 267°
2026-04-30 07:42 53.33593 -2.86058 86 ft 12 kts 266°
2026-04-30 07:42 53.33586 -2.86195 84 ft 12 kts 265°
2026-04-30 07:42 53.33545 -2.86302 85 ft 11 kts 206°
2026-04-30 07:43 53.33473 -2.86341 84 ft 11 kts 230°
2026-04-30 07:43 53.33461 -2.86467 86 ft 11 kts 265°
2026-04-30 07:43 53.33454 -2.86615 69 ft 14 kts 265°
2026-04-30 07:43 53.33393 -2.86729 69 ft 14 kts 191°
2026-04-30 07:44 53.33313 -2.86682 76 ft 9 kts 138°
2026-04-30 07:44 53.33290 -2.86598 76 ft 0 kts 85°
2026-04-30 07:44 53.33294 -2.86513 74 ft 33 kts 86°
2026-04-30 07:44 53.33332 -2.85672 83 ft 110 kts 85°
2026-04-30 07:45 53.33407 -2.84020 115 ft 170 kts 86°
2026-04-30 07:45 53.33491 -2.81982 900 ft 174 kts 86°
2026-04-30 07:45 53.33619 -2.80006 1926 ft 174 kts 77°
2026-04-30 07:45 53.34281 -2.78135 2298 ft 206 kts 43°
2026-04-30 07:46 53.35673 -2.77112 2491 ft 239 kts
2026-04-30 07:46 53.37331 -2.77848 2905 ft 261 kts 327°
2026-04-30 07:46 53.38529 -2.80226 3176 ft 282 kts 289°
2026-04-30 07:46 53.38748 -2.83448 3730 ft 280 kts 261°
2026-04-30 07:47 53.38559 -2.86723 4000 ft 285 kts 261°
2026-04-30 07:47 53.38454 -2.90078 4408 ft 292 kts 265°
2026-04-30 07:47 53.38449 -2.93457 5350 ft 289 kts 266°
2026-04-30 07:47 53.38513 -2.96904 6198 ft 292 kts 269°
2026-04-30 07:48 53.38630 -3.00301 6981 ft 296 kts 270°
2026-04-30 07:48 53.38777 -3.03772 7715 ft 301 kts 270°
2026-04-30 07:48 53.38934 -3.07283 8440 ft 304 kts 270°
2026-04-30 07:48 53.39092 -3.10842 9140 ft 309 kts 270°
2026-04-30 07:49 53.39568 -3.14377 9837 ft 318 kts 296°
2026-04-30 07:49 53.40820 -3.17447 10591 ft 321 kts 306°
2026-04-30 07:49 53.42172 -3.20528 10931 ft 339 kts 305°
2026-04-30 07:49 53.43604 -3.23823 11114 ft 361 kts 305°
2026-04-30 07:50 53.45117 -3.27335 11280 ft 382 kts 305°
2026-04-30 07:50 53.46704 -3.31048 11436 ft 401 kts 305°
2026-04-30 07:50 53.48364 -3.34953 11593 ft 419 kts 305°
2026-04-30 07:50 53.50073 -3.38988 11963 ft 428 kts 305°
2026-04-30 07:51 53.51803 -3.43082 12540 ft 431 kts 304°
2026-04-30 07:51 53.53541 -3.47202 13156 ft 433 kts 304°
2026-04-30 07:51 53.55286 -3.51345 13731 ft 435 kts 304°
2026-04-30 07:51 53.57041 -3.55518 14270 ft 439 kts 304°
2026-04-30 07:52 53.58811 -3.59733 14787 ft 442 kts 303°
2026-04-30 07:52 53.60394 -3.64184 15298 ft 444 kts 293°
2026-04-30 07:52 53.61464 -3.69046 15846 ft 442 kts 282°
2026-04-30 07:52 53.62047 -3.74118 16382 ft 441 kts 272°
2026-04-30 07:53 53.62235 -3.79271 16894 ft 442 kts 269°
2026-04-30 07:53 53.62396 -3.84452 17384 ft 444 kts 270°
2026-04-30 07:53 53.62590 -3.89650 17851 ft 447 kts 270°
2026-04-30 07:53 53.62808 -3.94891 18287 ft 450 kts 270°
2026-04-30 07:54 53.63027 -4.00158 18732 ft 452 kts 270°
2026-04-30 07:54 53.63237 -4.05465 19162 ft 455 kts 270°
2026-04-30 07:54 53.63443 -4.10797 19584 ft 457 kts 270°
2026-04-30 07:54 53.63646 -4.16163 19986 ft 461 kts 270°
2026-04-30 07:55 53.63848 -4.21562 20401 ft 463 kts 270°
2026-04-30 07:55 53.64049 -4.26990 20777 ft 466 kts 270°
2026-04-30 07:55 53.64249 -4.32460 21133 ft 469 kts 270°
2026-04-30 07:55 53.64447 -4.37960 21506 ft 471 kts 270°
2026-04-30 07:56 53.64641 -4.43493 21856 ft 474 kts 270°
2026-04-30 07:56 53.64834 -4.49053 22174 ft 477 kts 270°
2026-04-30 07:56 53.65026 -4.54647 22483 ft 479 kts 270°
2026-04-30 07:56 53.65218 -4.60270 22823 ft 481 kts 270°
2026-04-30 07:57 53.65408 -4.65916 23132 ft 484 kts 270°
2026-04-30 07:57 53.65596 -4.71592 23418 ft 486 kts 270°
2026-04-30 07:57 53.65783 -4.77293 23691 ft 489 kts 270°
2026-04-30 07:57 53.65968 -4.83033 23952 ft 491 kts 270°
2026-04-30 07:58 53.66156 -4.88799 24238 ft 493 kts 270°
2026-04-30 07:58 53.66348 -4.94575 24539 ft 495 kts 270°
2026-04-30 07:58 53.66541 -5.00379 24834 ft 496 kts 270°
2026-04-30 07:58 53.66731 -5.06195 25117 ft 498 kts 270°
2026-04-30 07:59 53.66918 -5.12039 25390 ft 499 kts 270°
2026-04-30 07:59 53.67099 -5.17887 25652 ft 501 kts 269°
2026-04-30 07:59 53.67270 -5.23754 25981 ft 500 kts 269°
2026-04-30 08:00 53.67600 -5.35406 26862 ft 495 kts 269°
2026-04-30 08:00 53.67666 -5.41181 27261 ft 490 kts 262°
2026-04-30 08:00 53.66872 -5.46684 27553 ft 480 kts 242°
2026-04-30 08:00 53.65210 -5.51493 27952 ft 471 kts 229°
2026-04-30 08:01 53.63022 -5.55514 28300 ft 463 kts 216°
2026-04-30 08:01 53.60408 -5.58635 28614 ft 460 kts 210°
2026-04-30 08:01 53.57712 -5.61533 28914 ft 460 kts 209°
2026-04-30 08:01 53.55006 -5.64398 29226 ft 460 kts 209°
2026-04-30 08:02 53.49610 -5.70144 29870 ft 459 kts 210°
2026-04-30 08:02 53.46928 -5.73032 30195 ft 458 kts 210°
2026-04-30 08:03 53.41588 -5.78819 30805 ft 457 kts 210°
2026-04-30 08:03 53.36264 -5.84594 31454 ft 454 kts 210°
2026-04-30 08:03 53.33619 -5.87456 31773 ft 453 kts 210°
2026-04-30 08:04 53.30976 -5.90311 32049 ft 452 kts 210°
2026-04-30 08:04 53.28333 -5.93161 32311 ft 452 kts 210°
2026-04-30 08:04 53.25695 -5.95999 32604 ft 451 kts 210°
2026-04-30 08:04 53.23060 -5.98831 32908 ft 449 kts 210°
2026-04-30 08:05 53.20434 -6.01650 33177 ft 449 kts 210°
2026-04-30 08:05 53.17811 -6.04461 33444 ft 447 kts 209°
2026-04-30 08:05 53.15199 -6.07256 33744 ft 445 kts 209°
2026-04-30 08:05 53.12595 -6.10039 34023 ft 443 kts 209°
2026-04-30 08:06 53.09998 -6.12810 34203 ft 444 kts 209°
2026-04-30 08:06 53.04768 -6.18375 34202 ft 446 kts 209°
2026-04-30 08:07 52.99568 -6.23898 34178 ft 442 kts 208°
2026-04-30 08:07 52.95266 -6.28451 34183 ft 440 kts 208°
2026-04-30 08:08 52.90108 -6.33897 34182 ft 439 kts 208°
2026-04-30 08:08 52.84963 -6.39314 34181 ft 438 kts 208°
2026-04-30 08:09 52.79815 -6.44716 34190 ft 439 kts 208°
2026-04-30 08:09 52.74652 -6.50122 34176 ft 440 kts 208°
2026-04-30 08:10 52.69468 -6.55536 34158 ft 442 kts 208°
2026-04-30 08:10 52.64260 -6.60960 34153 ft 444 kts 208°
2026-04-30 08:11 52.59036 -6.66413 34153 ft 445 kts 208°
2026-04-30 08:11 52.53818 -6.71913 34139 ft 446 kts 208°
2026-04-30 08:12 52.48593 -6.77411 34139 ft 446 kts 208°
2026-04-30 08:12 52.43362 -6.82890 34140 ft 446 kts 208°
2026-04-30 08:13 52.38134 -6.88346 34138 ft 445 kts 208°
2026-04-30 08:13 52.32911 -6.93785 34129 ft 445 kts 208°
2026-04-30 08:14 52.27685 -6.99206 34127 ft 445 kts 208°
2026-04-30 08:14 52.22468 -7.04613 34131 ft 444 kts 208°
2026-04-30 08:15 52.17252 -7.09990 34126 ft 443 kts 207°
2026-04-30 08:15 52.12011 -7.15284 34132 ft 443 kts 207°
2026-04-30 08:16 52.06776 -7.20536 34127 ft 442 kts 207°
2026-04-30 08:16 52.01538 -7.25786 34129 ft 442 kts 207°
2026-04-30 08:17 51.96311 -7.31023 34128 ft 441 kts 206°
2026-04-30 08:17 51.91087 -7.36243 34122 ft 442 kts 206°
2026-04-30 08:18 51.85849 -7.41462 34117 ft 442 kts 206°
2026-04-30 08:18 51.80610 -7.46665 34114 ft 443 kts 206°
2026-04-30 08:19 51.75356 -7.51869 34111 ft 443 kts 206°
2026-04-30 08:19 51.70098 -7.57066 34105 ft 443 kts 206°
2026-04-30 08:20 51.64836 -7.62251 34101 ft 444 kts 206°
2026-04-30 08:20 51.59570 -7.67426 34093 ft 444 kts 206°
2026-04-30 08:21 51.54294 -7.72597 34097 ft 444 kts 206°
2026-04-30 08:21 51.49024 -7.77747 34089 ft 444 kts 206°
2026-04-30 08:22 51.43752 -7.82884 34098 ft 443 kts 206°
2026-04-30 08:22 51.38480 -7.88008 34083 ft 443 kts 206°
2026-04-30 08:23 51.33210 -7.93118 34082 ft 442 kts 206°
2026-04-30 08:23 51.27947 -7.98207 34082 ft 442 kts 206°
2026-04-30 08:24 51.22692 -8.03272 34087 ft 441 kts 205°
2026-04-30 08:24 51.17479 -8.08285 34085 ft 440 kts 205°
2026-04-30 08:25 51.12236 -8.13314 34079 ft 439 kts 205°
2026-04-30 08:25 51.07004 -8.18320 34083 ft 439 kts 205°
2026-04-30 08:26 51.01766 -8.23270 34077 ft 436 kts 201°
2026-04-30 08:26 50.96170 -8.26408 34083 ft 422 kts 186°
2026-04-30 08:27 50.90409 -8.28215 34078 ft 422 kts 186°
2026-04-30 08:27 50.84658 -8.30038 34074 ft 422 kts 186°
2026-04-30 08:28 50.78870 -8.31904 34075 ft 422 kts 186°
2026-04-30 08:28 50.73120 -8.33769 34074 ft 422 kts 186°
2026-04-30 08:29 50.67374 -8.35633 34076 ft 422 kts 186°
2026-04-30 08:29 50.61622 -8.37494 34072 ft 422 kts 186°
2026-04-30 08:30 50.55873 -8.39351 34075 ft 422 kts 186°
2026-04-30 08:30 50.50127 -8.41201 34076 ft 422 kts 186°
2026-04-30 08:31 50.44380 -8.43046 34067 ft 421 kts 186°
2026-04-30 08:31 50.38635 -8.44887 34064 ft 421 kts 186°
2026-04-30 08:32 50.32898 -8.46720 34064 ft 421 kts 186°
2026-04-30 08:32 50.27166 -8.48546 34058 ft 420 kts 186°
2026-04-30 08:33 50.21430 -8.50369 34051 ft 421 kts 186°
2026-04-30 08:33 50.15686 -8.52191 34042 ft 421 kts 186°
2026-04-30 08:34 50.09951 -8.54006 34036 ft 421 kts 186°
2026-04-30 08:34 50.04210 -8.55820 34043 ft 421 kts 186°
2026-04-30 08:35 49.98478 -8.57625 34043 ft 420 kts 186°
2026-04-30 08:35 49.92782 -8.59413 34038 ft 420 kts 187°
2026-04-30 08:36 49.87023 -8.61218 34057 ft 420 kts 187°
2026-04-30 08:36 49.81294 -8.63007 34055 ft 420 kts 187°
2026-04-30 08:37 49.75568 -8.64792 34057 ft 420 kts 187°
2026-04-30 08:37 49.69843 -8.66574 34055 ft 420 kts 187°
2026-04-30 08:38 49.64106 -8.68354 34055 ft 421 kts 187°
2026-04-30 08:38 49.58361 -8.70133 34057 ft 421 kts 187°
2026-04-30 08:39 49.52650 -8.71897 34057 ft 422 kts 187°
2026-04-30 08:39 49.46853 -8.73683 34056 ft 422 kts 187°
2026-04-30 08:40 49.41093 -8.75454 34052 ft 422 kts 187°
2026-04-30 08:40 49.35331 -8.77221 34057 ft 422 kts 187°
2026-04-30 08:41 49.29563 -8.78985 34056 ft 423 kts 187°
2026-04-30 08:41 49.23796 -8.80744 34032 ft 423 kts 187°
2026-04-30 08:42 49.18015 -8.82503 34018 ft 424 kts 187°
2026-04-30 08:42 49.12269 -8.84250 34010 ft 424 kts 188°
2026-04-30 08:43 49.06452 -8.86013 34006 ft 423 kts 188°
2026-04-30 08:43 49.00716 -8.87747 34013 ft 423 kts 188°
2026-04-30 08:44 48.94933 -8.89490 34010 ft 424 kts 188°
2026-04-30 08:44 48.89156 -8.91229 34005 ft 423 kts 188°
2026-04-30 08:45 48.83375 -8.92963 34008 ft 423 kts 188°
2026-04-30 08:45 48.77595 -8.94693 34009 ft 423 kts 188°
2026-04-30 08:46 48.71811 -8.96423 34010 ft 424 kts 188°
2026-04-30 08:46 48.66028 -8.98146 34006 ft 424 kts 188°
2026-04-30 08:47 48.60237 -8.99821 34010 ft 423 kts 185°
2026-04-30 08:47 48.54381 -9.00085 34011 ft 421 kts 178°
2026-04-30 08:48 48.48525 -9.00030 34011 ft 421 kts 178°
2026-04-30 08:48 48.43620 -9.00007 33998 ft 421 kts 179°
2026-04-30 08:49 48.36802 -8.99998 34003 ft 422 kts 179°
2026-04-30 08:49 48.30931 -8.99998 34007 ft 422 kts 179°
2026-04-30 08:50 48.25063 -8.99999 34012 ft 422 kts 179°
2026-04-30 08:50 48.19189 -8.99999 34011 ft 422 kts 179°
2026-04-30 08:51 48.14263 -8.99999 34008 ft 422 kts 179°
2026-04-30 08:51 48.08384 -8.99999 34008 ft 423 kts 179°
2026-04-30 08:52 48.02510 -8.99999 34013 ft 422 kts 179°
2026-04-30 08:52 47.96625 -8.99999 34018 ft 423 kts 180°
2026-04-30 08:53 47.90736 -8.99998 34032 ft 424 kts 180°
2026-04-30 08:53 47.84833 -8.99999 34031 ft 425 kts 180°
2026-04-30 08:54 47.78911 -8.99999 34032 ft 426 kts 181°
2026-04-30 08:54 47.72971 -9.00000 34032 ft 427 kts 181°
2026-04-30 08:55 47.67019 -9.00001 34034 ft 428 kts 181°
2026-04-30 08:55 47.61055 -9.00000 34024 ft 428 kts 181°
2026-04-30 08:56 47.55092 -8.99999 34031 ft 428 kts 181°
2026-04-30 08:56 47.49129 -8.99998 34028 ft 429 kts 181°
2026-04-30 08:57 47.43161 -8.99998 34022 ft 428 kts 181°
2026-04-30 08:57 47.37206 -8.99999 34030 ft 428 kts 181°
2026-04-30 08:58 47.31244 -8.99999 34029 ft 428 kts 181°
2026-04-30 08:58 47.25282 -9.00001 34027 ft 428 kts 181°
2026-04-30 08:59 47.19321 -8.99999 34031 ft 429 kts 181°
2026-04-30 08:59 47.13349 -8.99999 34031 ft 429 kts 181°
2026-04-30 09:00 47.07375 -8.99999 34034 ft 430 kts 182°
2026-04-30 09:00 47.01396 -9.00000 34029 ft 430 kts 182°
2026-04-30 09:01 46.95412 -9.00000 34033 ft 430 kts 182°
2026-04-30 09:01 46.89420 -8.99999 34040 ft 431 kts 182°
2026-04-30 09:02 46.80418 -9.00000 34038 ft 431 kts 182°
2026-04-30 09:02 46.74408 -9.00000 34034 ft 432 kts 182°
2026-04-30 09:03 46.68396 -9.00002 34039 ft 432 kts 182°
2026-04-30 09:03 46.62381 -9.00001 34041 ft 433 kts 182°
2026-04-30 09:04 46.56359 -8.99999 34032 ft 433 kts 182°
2026-04-30 09:04 46.50334 -8.99999 34038 ft 433 kts 182°
2026-04-30 09:05 46.44314 -9.00000 34039 ft 433 kts 182°
2026-04-30 09:05 46.38282 -9.00000 34037 ft 433 kts 182°
2026-04-30 09:06 46.32255 -8.99999 34037 ft 434 kts 182°
2026-04-30 09:06 46.26215 -8.99999 34041 ft 434 kts 182°
2026-04-30 09:07 46.20174 -8.99998 34029 ft 434 kts 182°
2026-04-30 09:07 46.14133 -9.00000 34036 ft 434 kts 182°
2026-04-30 09:08 46.08094 -9.00001 34038 ft 434 kts 182°
2026-04-30 09:08 46.02050 -9.00000 34042 ft 434 kts 182°
2026-04-30 09:09 45.96007 -8.99999 34039 ft 435 kts 183°
2026-04-30 09:09 45.89950 -9.00000 34053 ft 436 kts 183°
2026-04-30 09:10 45.83876 -9.00000 34049 ft 437 kts 183°
2026-04-30 09:10 45.77775 -8.99997 34050 ft 439 kts 183°
2026-04-30 09:11 45.71662 -8.99999 34047 ft 440 kts 183°
2026-04-30 09:11 45.65528 -9.00000 34047 ft 441 kts 183°
2026-04-30 09:12 45.59390 -9.00000 34048 ft 441 kts 183°
2026-04-30 09:12 45.53253 -8.99999 34043 ft 441 kts 183°
2026-04-30 09:13 45.47124 -9.00000 34047 ft 441 kts 183°
2026-04-30 09:13 45.40989 -9.00000 34040 ft 441 kts 183°
2026-04-30 09:14 45.34852 -8.99999 34047 ft 441 kts 183°
2026-04-30 09:14 45.28721 -9.00000 34045 ft 441 kts 183°
2026-04-30 09:15 45.22591 -9.00000 34044 ft 440 kts 183°
2026-04-30 09:15 45.16463 -9.00000 34046 ft 441 kts 183°
2026-04-30 09:16 45.10333 -9.00000 34049 ft 441 kts 183°
2026-04-30 09:16 45.04197 -9.00005 34046 ft 440 kts 184°
2026-04-30 09:17 44.98226 -9.01461 34050 ft 434 kts 200°
2026-04-30 09:17 44.92758 -9.04949 34050 ft 431 kts 208°
2026-04-30 09:18 44.87405 -9.08773 34049 ft 431 kts 208°
2026-04-30 09:18 44.82036 -9.12568 34040 ft 432 kts 208°
2026-04-30 09:19 44.76653 -9.16337 34047 ft 433 kts 208°
2026-04-30 09:19 44.71256 -9.20098 34046 ft 433 kts 208°
2026-04-30 09:20 44.65848 -9.23854 34048 ft 433 kts 208°
2026-04-30 09:20 44.60449 -9.27598 34047 ft 433 kts 208°
2026-04-30 09:21 44.55047 -9.31334 34046 ft 433 kts 208°
2026-04-30 09:21 44.49654 -9.35061 34039 ft 432 kts 208°
2026-04-30 09:22 44.44259 -9.38776 34047 ft 432 kts 208°
2026-04-30 09:22 44.38874 -9.42477 34044 ft 431 kts 208°
2026-04-30 09:23 44.33491 -9.46170 34049 ft 431 kts 209°
2026-04-30 09:23 44.28117 -9.49851 34048 ft 430 kts 209°
2026-04-30 09:24 44.22739 -9.53526 34035 ft 430 kts 209°
2026-04-30 09:24 44.17370 -9.57188 34050 ft 430 kts 209°
2026-04-30 09:25 44.11998 -9.60843 34046 ft 430 kts 209°
2026-04-30 09:25 44.06628 -9.64489 34048 ft 429 kts 209°
2026-04-30 09:26 44.01261 -9.68129 34044 ft 429 kts 209°
2026-04-30 09:26 43.95897 -9.71758 34046 ft 429 kts 209°
2026-04-30 09:27 43.90534 -9.75380 34048 ft 429 kts 209°
2026-04-30 09:27 43.85174 -9.78991 34046 ft 428 kts 209°
2026-04-30 09:28 43.79815 -9.82594 34046 ft 428 kts 209°
2026-04-30 09:28 43.74453 -9.86192 34045 ft 428 kts 209°
2026-04-30 09:29 43.69092 -9.89781 34050 ft 429 kts 209°
2026-04-30 09:29 43.64631 -9.92763 34047 ft 429 kts 209°
2026-04-30 09:30 43.58384 -9.96930 34047 ft 429 kts 209°
2026-04-30 09:30 43.53012 -10.00508 34046 ft 429 kts 209°
2026-04-30 09:31 43.47636 -10.04080 34048 ft 429 kts 209°
2026-04-30 09:31 43.43133 -10.07066 34047 ft 429 kts 208°
2026-04-30 09:32 43.37757 -10.10627 34045 ft 429 kts 208°
2026-04-30 09:32 43.32379 -10.14179 34047 ft 429 kts 208°
2026-04-30 09:33 43.26999 -10.17727 34049 ft 429 kts 208°
2026-04-30 09:33 43.21620 -10.21266 34060 ft 429 kts 208°
2026-04-30 09:34 43.16239 -10.24799 34066 ft 429 kts 208°
2026-04-30 09:34 43.10855 -10.28329 34065 ft 429 kts 208°
2026-04-30 09:35 43.05475 -10.31849 34063 ft 429 kts 208°
2026-04-30 09:35 43.00093 -10.35361 34068 ft 429 kts 208°